User: anonymous   Login
Location: STAR School
(35.3054°N, 111.2976°W)
Time: 21:15:19
(UTC-07:00)
Language:

Tiros 1 despin weight - Orbit

View from above orbital plane
View from above orbital plane
View from above satellite
View from above satellite

Ground track
Ground track

The orbit data is extracted from the following two-line orbital elements,

1   115U 60002D   19145.76880546 -.00000083  00000-0  17230-4 0  9998
2   115  48.1676 343.0500 0034701 335.2469  24.6778 14.83443923155267
Epoch (UTC): 25 May 2019 18:27:04
Eccentricity: 0.0034701
inclination: 48.1676°
perigee height: 594 km
apogee height: 643 km
right ascension of ascending node: 343.0500°
argument of perigee: 335.2469°
revolutions per day: 14.83443923
mean anomaly at epoch: 24.6778°
orbit number at epoch: 15526

The dashed part of the orbit path shows where the satellite is in the earth's shadow,  

DLR